User: anonymous   Login
Location: Banios
(43.0451°N, 0.2335°E)
Time: 02:19:27
(UTC+00:00)
Language:

Cosmos 1937 Rocket - Orbit

View from above orbital plane
View from above orbital plane
View from above satellite
View from above satellite

Ground track
Ground track

The orbit data is extracted from the following two-line orbital elements,

1 19039U 88029B   21107.50443896 -.00000003  00000-0  75706-5 0  9993
2 19039  74.0477 240.4747 0022802  65.0570 295.2950 14.38505622731906
Epoch (UTC): 17 April 2021 12:06:23
Eccentricity: 0.0022802
inclination: 74.0477°
perigee height: 747 km
apogee height: 780 km
right ascension of ascending node: 240.4747°
argument of perigee: 65.0570°
revolutions per day: 14.38505622
mean anomaly at epoch: 295.2950°
orbit number at epoch: 73190

The dashed part of the orbit path shows where the satellite is in the earth's shadow,  

DLR